Noatak, AK

6:41 PM AKDT on August 16, 2017 (GMT -0800)
Noatak

Weather History for PAWN - January, 2013

Change the Weather History Date:

Friday, January 11, 2013

  Actual Average Record
Temperature  
Mean Temperature 17 °F -  
Max Temperature 24 °F 1 °F 30 °F (2003)
Min Temperature 10 °F -8 °F -47 °F (2012)
Degree Days  
Heating Degree Days 48    
Moisture  
Dew Point 15 °F    
Average Humidity 83    
Maximum Humidity 93    
Minimum Humidity 73    
Precipitation  
Precipitation 0.00 in - - ()
Sea Level Pressure  
Sea Level Pressure 29.72 in    
Wind  
Wind Speed 13 mph (East)    
Max Wind Speed 24 mph    
Max Gust Speed 29 mph    
Visibility 6 miles    
Events      
Averages and records for this station are not official NWS values.
T = Trace of Precipitation, MM = Missing Value Source: NWS Daily Summary

Daily Weather History Graph

Daily Weather History Graph

Search for Another Location

Airport or City:

Trip Planner

Search our weather history database for the weather conditions in past years. The results will help you decide how hot, cold, wet, or windy it might be!

Date:

Astronomy

Jan. 11, 2013 Rise Set
Actual Time 12:28 PM AKST 3:32 PM AKST
Civil Twilight 10:47 AM AKST 5:13 PM AKST
Nautical Twilight 9:28 AM AKST 6:32 PM AKST
Astronomical Twilight 8:21 AM AKST 7:39 PM AKST
Moon 11:18 AM AKST (1/11) 5:04 PM AKST (1/11)
Length of Visible Light 6h 25m
Length of Day
3h 04m
New Moon, 0% of the Moon is Illuminated
Jan 11
New Moon
Jan 18
First Quarter
Jan 26
Full
Feb 3
Last Quarter
Feb 9
New

Hourly Weather History & Observations

Time (AKST) Temp. Windchill Dew Point Humidity Pressure Visibility Wind Dir Wind Speed Gust Speed Precip Events Conditions
12:16 AM 10.4 °F -4.8 °F 6.8 °F 85% 29.80 in 10.0 mi NNE 12.7 mph - N/A   Clear
12:36 AM 10.4 °F -3.3 °F 6.8 °F 85% 29.79 in 10.0 mi NNE 10.4 mph - N/A   Clear
12:56 AM 10.4 °F -4.8 °F 6.8 °F 85% 29.78 in 10.0 mi NNE 12.7 mph - N/A   Clear
1:16 AM 10.4 °F -5.4 °F 6.8 °F 85% 29.78 in 10.0 mi NNE 13.8 mph - N/A   Partly Cloudy
1:36 AM 10.4 °F -4.1 °F 6.8 °F 85% 29.78 in 10.0 mi NNE 11.5 mph - N/A   Partly Cloudy
1:56 AM 12.2 °F -2.5 °F 6.8 °F 79% 29.76 in 10.0 mi NNE 12.7 mph - N/A   Clear
2:16 AM 12.2 °F -3.7 °F 6.8 °F 79% 29.75 in 10.0 mi NNE 15.0 mph 19.6 mph N/A   Partly Cloudy
2:36 AM 12.2 °F -3.1 °F 6.8 °F 79% 29.74 in 10.0 mi NNE 13.8 mph - N/A   Scattered Clouds
2:56 AM 12.2 °F -1.8 °F 6.8 °F 79% 29.74 in 10.0 mi NNE 11.5 mph - N/A   Scattered Clouds
3:16 AM 12.2 °F -1.0 °F 8.6 °F 85% 29.73 in 10.0 mi NNE 10.4 mph - N/A   Mostly Cloudy
3:36 AM 12.2 °F 0.7 °F 8.6 °F 85% 29.72 in 10.0 mi NNE 8.1 mph - N/A   Overcast
3:56 AM 14.0 °F -0.8 °F 8.6 °F 79% 29.72 in 9.0 mi NE 13.8 mph - N/A   Overcast
4:16 AM 14.0 °F 0.5 °F 8.6 °F 79% 29.71 in 10.0 mi NNE 11.5 mph - N/A   Overcast
4:36 AM 14.0 °F 0.5 °F 8.6 °F 79% 29.72 in 10.0 mi NNE 11.5 mph - N/A   Overcast
4:56 AM 14.0 °F -0.2 °F 8.6 °F 79% 29.71 in 10.0 mi NNE 12.7 mph - N/A   Overcast
5:16 AM 15.8 °F 3.4 °F 8.6 °F 73% 29.70 in 10.0 mi NNE 10.4 mph 18.4 mph N/A   Overcast
5:36 AM 15.8 °F 5.1 °F 8.6 °F 73% 29.69 in 10.0 mi NNE 8.1 mph - N/A   Overcast
5:56 AM 15.8 °F 6.1 °F 10.4 °F 79% 29.69 in 4.0 mi NNE 6.9 mph - N/A   Overcast
6:16 AM 15.8 °F 7.2 °F 10.4 °F 79% 29.69 in 2.0 mi NE 5.8 mph - N/A   Overcast
6:36 AM 15.8 °F 3.4 °F 12.2 °F 86% 29.68 in 2.0 mi NNE 10.4 mph - N/A   Overcast
6:56 AM 15.8 °F 5.1 °F 12.2 °F 86% 29.68 in 2.5 mi NE 8.1 mph - N/A   Mostly Cloudy
7:16 AM 15.8 °F 6.1 °F 12.2 °F 86% 29.67 in 2.5 mi NNE 6.9 mph - N/A   Overcast
7:36 AM 17.6 °F 9.3 °F 14.0 °F 86% 29.67 in 2.5 mi NE 5.8 mph - N/A   Overcast
7:56 AM 17.6 °F 8.2 °F 14.0 °F 86% 29.66 in 3.0 mi ENE 6.9 mph - N/A   Mostly Cloudy
8:16 AM 19.4 °F 10.4 °F 15.8 °F 86% 29.66 in 2.0 mi East 6.9 mph - N/A   Overcast
8:36 AM 21.2 °F 8.3 °F 17.6 °F 86% 29.66 in 1.2 mi East 13.8 mph 18.4 mph N/A   Overcast
8:56 AM 21.2 °F 9.5 °F 17.6 °F 86% 29.66 in 1.5 mi East 11.5 mph - N/A   Overcast
9:16 AM 21.2 °F 12.6 °F 17.6 °F 86% 29.66 in 3.0 mi East 6.9 mph - N/A   Mostly Cloudy
9:36 AM 21.2 °F 8.9 °F 15.8 °F 80% 29.66 in 2.0 mi ESE 12.7 mph 18.4 mph N/A   Overcast
9:56 AM 21.2 °F 9.5 °F 15.8 °F 80% 29.66 in 2.0 mi ESE 11.5 mph 17.3 mph N/A   Overcast
10:16 AM 21.2 °F 10.1 °F 17.6 °F 86% 29.66 in 3.0 mi ESE 10.4 mph - N/A   Overcast
10:36 AM 21.2 °F 8.9 °F 15.8 °F 80% 29.66 in 3.0 mi ESE 12.7 mph 19.6 mph N/A   Overcast
10:56 AM 21.2 °F 8.3 °F 15.8 °F 80% 29.66 in 3.0 mi ESE 13.8 mph 18.4 mph N/A   Overcast
11:16 AM 21.2 °F 8.9 °F 15.8 °F 80% 29.66 in 4.0 mi ESE 12.7 mph - N/A   Overcast
11:36 AM 21.2 °F 7.8 °F 15.8 °F 80% 29.66 in 3.0 mi ESE 15.0 mph 19.6 mph N/A   Overcast
11:56 AM 19.4 °F 6.0 °F 15.8 °F 86% 29.66 in 1.5 mi ESE 13.8 mph 19.6 mph N/A   Overcast
12:16 PM 21.2 °F 10.1 °F 15.8 °F 80% 29.67 in 1.8 mi ESE 10.4 mph 20.7 mph N/A   Overcast
12:36 PM 21.2 °F 8.9 °F 15.8 °F 80% 29.68 in 1.8 mi ESE 12.7 mph - N/A   Overcast
12:56 PM 21.2 °F 6.8 °F 15.8 °F 80% 29.68 in 3.0 mi ESE 17.3 mph 21.9 mph N/A   Overcast
1:16 PM 21.2 °F 6.8 °F 15.8 °F 80% 29.68 in 10.0 mi ESE 17.3 mph 23.0 mph N/A   Overcast
1:36 PM 21.2 °F 6.4 °F 15.8 °F 80% 29.69 in 10.0 mi ESE 18.4 mph 26.5 mph N/A   Overcast
1:56 PM 21.2 °F 6.4 °F 15.8 °F 80% 29.69 in 10.0 mi ESE 18.4 mph 23.0 mph N/A   Overcast
2:16 PM 21.2 °F 6.4 °F 15.8 °F 80% 29.69 in 10.0 mi ESE 18.4 mph 23.0 mph N/A   Overcast
2:36 PM 21.2 °F 7.3 °F 17.6 °F 86% 29.69 in 10.0 mi ESE 16.1 mph 23.0 mph N/A   Overcast
2:56 PM 21.2 °F 5.6 °F 17.6 °F 86% 29.68 in 7.0 mi ESE 20.7 mph 28.8 mph N/A   Overcast
3:16 PM 21.2 °F 5.6 °F 17.6 °F 86% 29.69 in 1.2 mi ESE 20.7 mph 27.6 mph N/A   Overcast
3:36 PM 21.2 °F 4.5 °F 17.6 °F 86% 29.69 in 1.8 mi ESE 24.2 mph 27.6 mph N/A   Overcast
3:56 PM 21.2 °F 5.6 °F 17.6 °F 86% 29.70 in 2.5 mi ESE 20.7 mph 27.6 mph N/A   Overcast
4:16 PM 21.2 °F 5.6 °F 17.6 °F 86% 29.70 in 6.0 mi ESE 20.7 mph 28.8 mph N/A   Overcast
4:36 PM 21.2 °F 6.4 °F 17.6 °F 86% 29.71 in 10.0 mi ESE 18.4 mph 24.2 mph N/A   Overcast
4:56 PM 21.2 °F 6.4 °F 17.6 °F 86% 29.72 in 10.0 mi ESE 18.4 mph 24.2 mph N/A   Overcast
5:16 PM 21.2 °F 6.4 °F 17.6 °F 86% 29.72 in 10.0 mi ESE 18.4 mph 24.2 mph N/A   Overcast
5:56 PM 23.0 °F 8.3 °F 19.4 °F 86% 29.72 in 3.0 mi ESE 19.6 mph 25.3 mph N/A   Overcast
6:16 PM 23.0 °F 9.2 °F 19.4 °F 86% 29.73 in 5.0 mi ESE 17.3 mph 21.9 mph N/A   Scattered Clouds
6:36 PM 23.0 °F 8.7 °F 19.4 °F 86% 29.74 in 2.5 mi ESE 18.4 mph 21.9 mph N/A   Mostly Cloudy
6:56 PM 23.0 °F 9.2 °F 19.4 °F 86% 29.74 in 4.0 mi ESE 17.3 mph 21.9 mph N/A   Overcast
7:16 PM 23.0 °F 8.7 °F 19.4 °F 86% 29.75 in 3.0 mi ESE 18.4 mph 24.2 mph N/A   Overcast
7:36 PM 23.0 °F 10.6 °F 19.4 °F 86% 29.75 in 7.0 mi ESE 13.8 mph 17.3 mph N/A   Overcast
7:56 PM 24.8 °F 11.5 °F 23.0 °F 93% 29.76 in 6.0 mi SSE 17.3 mph 23.0 mph N/A   Overcast
8:16 PM 24.8 °F 12.4 °F 21.2 °F 86% 29.77 in 4.0 mi SSE 15.0 mph 24.2 mph N/A   Overcast
8:36 PM 24.8 °F 14.6 °F 19.4 °F 80% 29.78 in 6.0 mi SSE 10.4 mph - N/A   Overcast
8:56 PM 23.0 °F 11.7 °F 17.6 °F 80% 29.79 in 9.0 mi SSE 11.5 mph - N/A   Mostly Cloudy
9:16 PM 23.0 °F 11.7 °F 17.6 °F 80% 29.79 in 5.0 mi SSE 11.5 mph 18.4 mph N/A   Mostly Cloudy
9:36 PM 23.0 °F 10.1 °F 19.4 °F 86% 29.80 in 8.0 mi SSE 15.0 mph - N/A   Mostly Cloudy
9:56 PM 23.0 °F 10.1 °F 17.6 °F 80% 29.81 in 8.0 mi SSE 15.0 mph 21.9 mph N/A   Partly Cloudy
10:16 PM 23.0 °F 12.4 °F 17.6 °F 80% 29.81 in 10.0 mi SSE 10.4 mph - N/A   Mostly Cloudy
10:36 PM 23.0 °F 11.1 °F 17.6 °F 80% 29.81 in 10.0 mi SSE 12.7 mph - N/A   Overcast
10:56 PM 23.0 °F 11.1 °F 19.4 °F 86% 29.82 in 5.0 mi SE 12.7 mph 17.3 mph N/A   Overcast
11:16 PM 23.0 °F 11.7 °F 19.4 °F 86% 29.82 in 5.0 mi SE 11.5 mph - N/A   Overcast
11:36 PM 23.0 °F 11.1 °F 19.4 °F 86% 29.82 in 8.0 mi SE 12.7 mph - N/A   Overcast
11:56 PM 24.8 °F 11.9 °F 19.4 °F 80% 29.82 in 10.0 mi SSE 16.1 mph 20.7 mph N/A   Overcast